Regional Weather Roundup
Issued by NWS

Home | Current Version | Previous Version | Text Only | Print | Product List | Glossary Off
Versions: 1 2 3 4 5 6 7 8 9 10 11 12 13 14 15 16 17 18 19 20 21 22 23 24 25 26 27 28 29 30 31 32 33 34 35 36 37 38 39 40 41 42 43 44 45 46 47 48 49 50

000
ASUS43 KLOT 191708
RWRIL

ILLINOIS REGIONAL WEATHER ROUNDUP
NATIONAL WEATHER SERVICE CHICAGO/ROMEOVILLE IL
1100 AM CST SUN FEB 19 2017

NOTE: "FAIR" INDICATES FEW OR NO CLOUDS BELOW 12,000 FEET WITH NO
SIGNIFICANT WEATHER AND/OR OBSTRUCTIONS TO VISIBILITY.

* THESE STATIONS ARE NOT UNDER NWS QUALITY CONTROL. THEY ALSO MAY NOT
  REPORT WEATHER SUCH AS PRECIPITATION OR FOG.

ILZ001-002-007-009-015-016-024-191800-
NORTHWEST ILLINOIS

CITY           SKY/WX    TMP DP  RH WIND       PRES   REMARKS
MOLINE         SUNNY     63  41  44 CALM      30.03F
STERLING*      SUNNY     57  44  62 VRB3      30.06R
SAVANNA*       SUNNY     55  40  58 S3        30.05S
$$

ILZ003-004-008-010-011-017-018-191800-
NORTH CENTRAL ILLINOIS

CITY           SKY/WX    TMP DP  RH WIND       PRES   REMARKS
ROCKFORD       MOSUNNY   60  31  33 SE8       30.08R
FREEPORT*      SUNNY     57  36  45 SE7       30.07S
ROCHELLE*      SUNNY     59  39  47 SE5       30.06S
DE KALB*       SUNNY     60  33  36 S6        30.07R
PERU*          SUNNY     56  39  52 S3        30.07R
$$

ILZ005-006-012>014-019>023-191800-
NORTHEAST ILLINOIS

CITY           SKY/WX    TMP DP  RH WIND       PRES   REMARKS
CHICAGO-OHARE  MOSUNNY   60  31  33 E3        30.05S
CHICAGO-MIDWAY MOSUNNY   61  30  31 CALM      30.06R
AURORA         SUNNY     62  31  31 SE7       30.07R
LANSING*       SUNNY     59  40  49 CALM      30.07R
JOLIET*        SUNNY     61  42  48 SE5       30.07R
WAUKEGAN       SUNNY     58  29  33 VRB3      30.05R
DUPAGE AIRPORT SUNNY     62  27  26 VRB3      30.05R
KANKAKEE*      SUNNY     55  44  67 S5        30.09R
WHEELING       SUNNY     60  29  30 CALM      30.07R
MORRIS*        SUNNY     59  40  48 CALM      30.05S HAZE
ROMEOVILLE*    SUNNY     61  42  49 SE3       30.06S
NORTHERLY ISL    N/A     54  29  38 E2          N/A
$$

LMZ740>746-191800-
SOUTHERN LAKE MICHIGAN

STATION/POSITION SKY/WX   TEMP    WIND        PRES    VSBY  WAVE
                          AIR SEA DIR/SP/G                  HT/PER
                          (F)     (DEG/KT/KT) (MB)    (MI)  (FT/S)
HARRISON CRIB              53        CALM       N/A
BURNHAM HARBOR             51      60/  4       N/A
CALUMET HARBOR             52      60/  3/  4 1017.5R
BURNS HARBOR               48     340/  2/  3 1018.6S
MICHIGAN CITY              45     240/  7/  7   N/A
$$

ILZ025>027-034>036-040-047-049-050-058-095>099-191800-
WEST-CENTRAL ILLINOIS

CITY           SKY/WX    TMP DP  RH WIND       PRES   REMARKS
QUINCY         SUNNY     64  51  62 CALM      30.04S
GALESBURG*     SUNNY     64  39  40 SE3       30.05R
MACOMB*        SUNNY     62  46  57 S8        30.07R
JACKSONVILLE*  SUNNY     61  48  60 S3        30.06S
PITTSFIELD*    SUNNY     65  53  63 CALM      30.06S
$$

ILZ028>032-037-038-041>044-048-051>054-059>061-191800-
CENTRAL ILLINOIS

CITY           SKY/WX    TMP DP  RH WIND       PRES   REMARKS
PONTIAC        SUNNY     59  44  56 S3        30.07F
BLOOMINGTON    PTSUNNY   51  48  89 S12       30.08R FOG
DECATUR        CLOUDY    50  49  96 S6        30.09R FOG
PEORIA         SUNNY     55  44  66 S7        30.07R
LACON*         SUNNY     59  42  53 CALM      30.05R
LINCOLN*       CLOUDY    50  50 100 S6        30.08R FOG
SPRINGFIELD    SUNNY     55  49  80 VRB3      30.09R HAZE
TAYLORVILLE    CLOUDY    50  50 100 CALM      30.08S FOG
$$

ILZ033-039-045-046-055>057-062-063-191800-
EAST-CENTRAL ILLINOIS

CITY           SKY/WX    TMP DP  RH WIND       PRES   REMARKS
CHAMPAIGN      CLOUDY    52  47  83 S6        30.09S HAZE
RANTOUL*       CLOUDY    51  50  98 S6        30.08S FOG
MATTOON        CLOUDY    52  50  93 S9        30.08S FOG
PARIS*         CLOUDY    53  49  83 SW6       30.10S
$$

ILZ079-100>102-191800-
SOUTHWEST ILLINOIS

CITY           SKY/WX    TMP DP  RH WIND       PRES   REMARKS
ALTON          CLOUDY    50  50 100 S6        30.09R FOG
BELLEVILLE     CLOUDY    50  50 100 VRB5      30.08S FOG
CAHOKIA*       PTSUNNY   56  51  84 SW3       30.08S HAZE
SPARTA*        CLOUDY    53  53  99 S3        30.10R FOG
$$

ILZ064>066-069>071-074>076-080>082-084>086-088>090-092>094-191800-
SOUTH-CENTRAL ILLINOIS

CITY           SKY/WX    TMP DP  RH WIND       PRES   REMARKS
CARBONDALE     CLOUDY    56  54  93 SE7       30.10S FOG
CAIRO*         FOG       50  50 100 CALM      30.13R VSB 1/2
EFFINGHAM*     CLOUDY    52  52  99 SE6       30.11S FOG
MARION         CLOUDY    55  55 100 S3        30.10F FOG
MT. VERNON     CLOUDY    55  51  86 CALM      30.10S FOG
CENTRALIA*     CLOUDY    57  52  84 SE3       30.08F HAZE
SALEM*         CLOUDY    56  51  84 S5        30.10S HAZE
METROPOLIS*    CLOUDY    51  51  99 CALM      30.12S FOG
$$

ILZ067-068-072-073-078-083-087-091-191800-
SOUTHEAST ILLINOIS

CITY           SKY/WX    TMP DP  RH WIND       PRES   REMARKS
LAWRENCEVILLE  CLOUDY    53  49  86 CALM      30.12R FOG
FLORA*         CLOUDY    54  51  91 S5        30.11S FOG
FAIRFIELD*     CLOUDY    53  51  95 S3        30.10S FOG
HARRISBURG*    CLOUDY    53  52  96 E6        30.11S FOG
ROBINSON*      CLOUDY    53  48  84 CALM      30.12R HAZE
CARMI*         CLOUDY    52  51  98 SE3       30.11S FOG
$$

ABBREVIATIONS USED IN REMARKS
   TC - TEMPERATURE IN CELSIUS
  WCI - WIND CHILL INDEX
   HX - HEAT INDEX
  VSB - VISIBILITY
$$





USA.gov is the U.S. government's official web portal to all federal, state and local government web resources and services.